Meteo Giornale » Osservazioni meteo Italia » Falconara

ore: 08:50 - Osservazioni Meteo Falconara
Lat. 43° 37' N Lon. 13° 22' E Alt. 12 metri s.l.m.

sereno Europe/Rome

22 °C

Sereno

Temp. 24 Ore

17 °C

26 °C

Sud-Ovest

7.4 Km/h

Dew point 15 °C

Umidità 64 %

Visibilità  10 Km

Il sole sorge alle ore 05:30

Il sole tramonta alle ore 20:35

Data e Ora Cielo e Fenomeni T °C DP °C Um. % Pres. hPa Vis. km Vento km/h
Oggi h: 08:50 sereno Sereno 22 15 64 1017 10 SO 7.4
Oggi h: 07:50 sereno Sereno 22 14 60 1016 10 N 3.7
Oggi h: 06:50 sereno Sereno 19 14 72 1016 10 N 3.7
Oggi h: 05:50 sereno Sereno 18 13 72 1016 10 S/SE 11.1
Oggi h: 04:50 sereno Sereno 18 14 77 1016 10 S 7.4
Oggi h: 03:50 sereno Sereno 17 14 82 1016 10 S 7.4
Oggi h: 01:50 sereno Sereno 18 14 77 1017 10 N 5.5
Oggi h: 00:50 sereno Sereno 18 14 77 1017 10 N 5.5
Ieri h: 23:50 sereno Sereno 20 14 68 1017 10 S 7.4
Ieri h: 22:50 sereno Sereno 19 13 68 1017 10 S/SO 9.3
Ieri h: 21:50 sereno Sereno 21 14 64 1016 10 S 9.3
Ieri h: 20:50 sereno Sereno 23 12 49 1016 10 N 3.7
Ieri h: 19:50 sereno Sereno 25 9 36 1015 10 N 5.5
Ieri h: 18:50 sereno Sereno 25 9 36 1015 10 NE 9.3
Ieri h: 17:50 sereno Sereno 26 10 36 1015 10 NE 11.1
Ieri h: 16:50 sereno Sereno 26 11 39 1015 10 N/NE 13
Ieri h: 15:50 sereno Sereno 25 12 44 1015 10 N/NE 11.1
Ieri h: 14:50 sereno Sereno 25 13 47 1016 10 N/NE 13
Ieri h: 13:50 sereno Sereno 25 14 50 1017 10 NE 11.1
Ieri h: 11:50 sereno Sereno 24 14 53 1017 10 N 11.1
Ieri h: 10:50 sereno Sereno 23 14 56 1017 10 N/NO 11.1
Ieri h: 09:50 sereno Sereno 23 13 53 1017 10 NO 7.4